Find Starlink 4522

NORAD ID: 53388 Int'l Des: 2022-097 Owner: SPXS Country: US Constellation: starlink operational
LEOCIRCULAR

当前视图

正在加载3D地球...

About Starlink 4522

Starlink 4522 (NORAD 53388) is a starlink constellation satellite (v1.5) launched Aug 10, 2022 by SPXS of US. It operates in LEO, CIRCULAR orbit with a mass of 297.00 kg.

关于 Starlink 4522

正在加载描述...

即将过境

Passes for default location (London). Set your location on the main map for personalized predictions.

高度历史

Loading altitude history...

两行轨道根数

1 53388U 22097A 26166.95745561 -.00000300 00000-0 -74901-6 0 9992
2 53388 53.1589 42.8925 0001311 94.2434 265.8707 15.08828855213687
Epoch: Jun 15, 2026 • Age: 9 hours

当前状态

高度 539.7 km
速度 7.59 km/s
星下点 9.07°N, 165.24°W
发射日期 Aug 10, 2022
运行时间 3.8 years
类型 internet

技术详情

分类 Payload
质量 297.00 kg
干质量 275.00 kg
总质量 297.00 kg
长度 0.20 m
直径 2.80 m
跨度 9.00 m
形状 Box + pan
制造商 SPXS
平台类型 Starlink
阶段状态 In Orbit
所有者/国家 SPXS/US

Most Searched